Weather History for Casper, WY

Change the Weather History Date:

Monday, January 2, 2012

  Actual Average Record
Temperature  
Mean Temperature 29 °F 24 °F  
Max Temperature 43 °F 35 °F 56 °F (1981)
Min Temperature 14 °F 14 °F -19 °F (1950)
Degree Days  
Heating Degree Days 36 41  
Month to date heating degree days 83 82  
Since 1 July heating degree days 2983 3211  
Cooling Degree Days 0 0  
Month to date cooling degree days 0 0  
Year to date cooling degree days 0 0  
Moisture  
Dew Point 16 °F    
Average Humidity 52    
Maximum Humidity 67    
Minimum Humidity 36    
Precipitation  
Precipitation 0.00 in 0.01 in 0.19 in (1993)
Month to date precipitation 0.00 0.03  
Year to date precipitation 0.00 0.03  
Snow  
Snow 0.00 in 0.40 in - ()
Month to date snowfall 0.0 0.7  
Since 1 July snowfall 26.7 31.2  
Snow Depth 0.00 in    
Sea Level Pressure  
Sea Level Pressure 30.47 in    
Wind  
Wind Speed 18 mph (SW)    
Max Wind Speed 32 mph    
Max Gust Speed 45 mph    
Visibility 10 miles    
Events      
T = Trace of Precipitation, MM = Missing Value Source: NWS Daily Summary

Daily Weather History Graph

Daily Weather History Graph

Search for Another Location

Airport:

Trip Planner

Search our weather history database for the weather conditions in past years. The results will help you decide how hot, cold, wet, or windy it might be!

Date:

Astronomy

Jan. 02, 2012 Rise Set
Actual Time 7:36 AM MST 4:42 PM MST
Civil Twilight 7:04 AM MST 5:14 PM MST
Nautical Twilight 6:29 AM MST 5:50 PM MST
Astronomical Twilight 5:54 AM MST 6:24 PM MST
Moon 12:04 PM MST (1/2) 1:28 AM MST (1/2)
Length of Visible Light 10h 10m
Length of Day
9h 05m
Waxing Gibbous, 64% of the Moon is Illuminated
Jan 2
Waxing Gibbous
Jan 9
Full
Jan 16
Last Quarter
Jan 23
New
Jan 30
First Quarter

Hourly Weather History & Observations

Time (MST) Temp. Windchill Dew Point Humidity Pressure Visibility Wind Dir Wind Speed Gust Speed Precip Events Conditions
12:53 AM 18.0 °F 8.7 °F 7.0 °F 62% 30.70 in 10.0 mi WSW 6.9 mph - N/A   Clear
1:53 AM 15.1 °F 2.5 °F 6.1 °F 68% 30.71 in 10.0 mi WSW 10.4 mph - N/A   Clear
2:53 AM 23.0 °F 11.1 °F 10.0 °F 58% 30.66 in 10.0 mi SW 12.7 mph 20.7 mph N/A   Clear
3:53 AM 24.1 °F 12.5 °F 10.9 °F 57% 30.66 in 10.0 mi SW 12.7 mph - N/A   Clear
4:53 AM 26.1 °F 12.3 °F 10.9 °F 53% 30.66 in 10.0 mi SW 19.6 mph 26.5 mph N/A   Clear
5:53 AM 25.0 °F 12.2 °F 12.0 °F 58% 30.66 in 10.0 mi SW 16.1 mph - N/A   Clear
6:53 AM 27.0 °F 14.3 °F 12.0 °F 53% 30.66 in 10.0 mi SW 17.3 mph - N/A   Clear
7:53 AM 28.4 °F 15.1 °F 12.2 °F 51% 30.46 in 10.0 mi SW 20.7 mph 24.2 mph N/A   Clear
8:53 AM 30.9 °F 18.4 °F 12.9 °F 47% 30.61 in 10.0 mi SSW 20.7 mph 26.5 mph N/A   Clear
9:53 AM 34.0 °F 22.7 °F 14.0 °F 44% 30.60 in 10.0 mi SW 19.6 mph - N/A   Clear
10:53 AM 36.0 °F 24.4 °F 17.1 °F 46% 30.54 in 10.0 mi SSW 23.0 mph 28.8 mph N/A   Clear
11:53 AM 37.9 °F 27.1 °F 17.1 °F 43% 30.50 in 10.0 mi SSW 23.0 mph 34.5 mph N/A   Clear
12:53 PM 39.9 °F 29.5 °F 18.0 °F 41% 30.46 in 10.0 mi SSW 24.2 mph 29.9 mph N/A   Clear
1:53 PM 42.1 °F 33.3 °F 18.0 °F 38% 30.43 in 10.0 mi SSW 19.6 mph 29.9 mph N/A   Clear
2:53 PM 43.0 °F 35.1 °F 19.0 °F 38% 30.39 in 10.0 mi SW 17.3 mph - N/A   Clear
3:53 PM 42.1 °F 34.5 °F 19.0 °F 40% 30.38 in 10.0 mi SW 15.0 mph - N/A   Clear
4:53 PM 41.0 °F 33.9 °F 19.9 °F 43% 30.35 in 10.0 mi SSW 12.7 mph - N/A   Clear
5:53 PM 39.9 °F 31.1 °F 19.9 °F 45% 30.35 in 10.0 mi SSW 17.3 mph - N/A   Clear
6:53 PM 41.0 °F 33.1 °F 19.0 °F 41% 30.32 in 10.0 mi SW 15.0 mph 20.7 mph N/A   Clear
7:53 PM 41.0 °F 32.8 °F 19.9 °F 43% 30.30 in 10.0 mi SW 16.1 mph - N/A   Clear
8:53 PM 39.0 °F 31.0 °F 19.0 °F 45% 30.27 in 10.0 mi WSW 13.8 mph - N/A   Clear
9:53 PM 43.0 °F 32.5 °F 19.9 °F 40% 30.22 in 10.0 mi SW 29.9 mph 39.1 mph N/A   Clear
10:53 PM 42.1 °F 31.0 °F 19.9 °F 41% 30.20 in 10.0 mi SW 32.2 mph 40.3 mph N/A   Clear
11:53 PM 42.1 °F 31.7 °F 19.9 °F 41% 30.19 in 10.0 mi SW 27.6 mph - N/A   Clear